Location: Newark
(8.3667°S, 17.0167°E)
Time: 20:33:50
(UTC+00:00)

N. Korean satellite - Pass Details

Date: 14 November 2019
Orbit: 455 x 506 km, 97.2° (Epoch: 10 December)

Event Time Altitude Azimuth Distance (km) Brightness Sun altitude
Rises 03:47:43 0° 30° (NNE) 2,560 10.4 -8.8°
Reaches altitude 10° 03:50:00 10° 42° (NE) 1,675 9.6 -8.2°
Maximum altitude 03:53:06 27° 102° (ESE) 956 9.1 -7.5°
Drops below altitude 10° 03:56:10 10° 161° (SSE) 1,662 9.9 -6.8°
Sets 03:58:25 0° 173° (S) 2,536 10.6 -6.3°
